Location: Hermaringen
(48.5952°N, 10.2585°E)
Time: 20:41:49
(UTC+00:00)

S-56A Canister/Altair - Pass Details

Date: 20 February 2026
Orbit: 633 x 2484 km, 38.9° (Epoch: 13 March)

Event Time Altitude Azimuth Distance (km) Brightness Sun altitude
Exits shadow 01:49:36 20° 135° (SE) 3,209 10.6 -42.8°
Drops below altitude 10° 01:53:01 10° 126° (SE) 4,208 11.4 -42.4°
Sets 01:57:18 0° 120° (ESE) 5,487 12.1 -41.8°
